#timestamp,LO_Frequency,Hit 
1498204815.1,286046981.8,N
1498204816.0,286046981.8,N
1498204835.8,286046981.6,N
1498204855.6,286046981.9,N
1498204875.4,286046977.5,N
1498204895.3,286046979.5,N
1498204915.1,286046979.1,N
1498204935.8,286046979.5,N
1498204955.7,286046977.8,N
1498204975.5,286046977.4,N
1498204995.3,286046977.5,N
1498205015.2,286046978.4,N
1498205035.9,286046976.1,N
1498205055.7,286046978.7,N
1498205075.6,286046978.7,N
1498205095.4,286046978.8,N
1498205115.2,286046975.8,N
1498205135.1,286046975.7,N
1498205136.0,286046975.7,N
1498205155.8,286046975.9,N
1498205175.6,286046975.9,N
1498205195.5,286046975.7,N
1498205215.3,286046978.7,N
1498205235.1,286046977.3,N
1498205255.8,286046977.9,N
1498205275.7,286046978.5,N
1498205295.5,286046976.1,N
1498205315.3,286046976.7,N
1498205335.2,286046974.5,Y
1498205355.0,286046986.0,N
1498205355.9,286046986.0,N
1498205375.7,286046986.6,N
1498205395.6,286046986.6,N
1498205415.4,286046986.8,N
1498205435.2,286046985.2,N
1498205455.1,286046983.3,N
1498205456.0,286046983.3,N
1498205475.8,286046982.8,N
1498205495.6,286046983.1,N
1498205515.5,286046980.5,N
1498205535.3,286046983.2,N
1498205555.1,286046980.7,N
1498205575.8,286046981.3,N
1498205595.7,286046981.0,N
1498205615.5,286046980.9,N
1498205635.3,286046981.8,N
1498205655.2,286046978.9,N
1498205675.9,286046982.0,N
1498205695.7,286046979.4,N
1498205715.6,286046979.6,N
1498205735.4,286046977.8,N
1498205755.2,286046980.0,N
1498205775.1,286046979.8,N
1498205776.0,286046979.8,N
1498205795.8,286046980.2,N
1498205815.6,286046979.7,N
1498205835.5,286046979.8,N
1498205855.3,286046980.3,N
1498205875.1,286046978.3,N
1498205895.9,286046975.7,Y
1498205915.7,286046989.9,N
1498205935.5,286046987.0,N
1498205955.3,286046987.7,N
1498205975.2,286046987.2,N
1498205995.0,286046985.6,N
1498205995.9,286046985.6,N
1498206015.7,286046986.7,N
1498206035.6,286046983.8,N
1498206055.4,286046984.8,N
1498206075.2,286046985.2,N
1498206095.1,286046984.8,N
1498206096.0,286046984.8,N
1498206115.8,286046984.8,N
1498206135.6,286046983.8,N
1498206155.5,286046984.6,N
1498206175.3,286046982.5,N
1498206195.1,286046982.5,N
1498206215.9,286046981.2,N
1498206235.7,286046981.2,N
1498206255.5,286046981.2,N
1498206275.3,286046979.0,N
1498206295.2,286046981.6,N
1498206315.0,286046981.5,N
1498206315.9,286046981.5,N
1498206335.7,286046977.3,Y
1498206355.6,286046991.3,N
1498206375.4,286046990.7,N
1498206395.2,286046990.8,N
1498206415.1,286046990.8,N
1498206416.0,286046990.8,N
1498206435.8,286046988.5,N
1498206455.6,286046989.2,N
1498206475.5,286046987.7,N
1498206495.3,286046987.8,N
1498206515.1,286046987.7,N
1498206535.9,286046987.7,N
1498206555.7,286046987.1,N
1498206575.5,286046985.5,N
1498206595.3,286046986.3,N
1498206615.2,286046986.1,N
1498206635.0,286046983.7,N
1498206635.9,286046983.7,N
1498206655.7,286046983.8,N
1498206675.6,286046983.7,N
1498206695.4,286046983.9,N
1498206715.2,286046984.6,N
1498206735.1,286046984.8,N
1498206736.0,286046984.8,N
1498206755.8,286046984.9,N
1498206775.6,286046984.0,N
1498206795.5,286046985.9,N
1498206815.3,286046985.4,N
1498206835.1,286046985.5,N
1498206855.9,286046985.9,N
1498206875.7,286046986.8,N
1498206895.5,286046984.9,N
1498206915.3,286046985.2,N
1498206935.2,286046985.0,N
1498206955.0,286046982.6,N
1498206955.9,286046982.6,N
1498206975.7,286046982.9,N
1498206995.6,286046980.7,Y
1498207015.4,286046996.1,N
1498207035.2,286046994.0,N
1498207055.1,286046994.1,N
1498207056.0,286046994.1,N
1498207075.8,286046994.1,N
1498207095.6,286046992.2,N
1498207115.5,286046994.8,N
1498207135.3,286046994.4,N
1498207155.1,286046992.9,N
1498207175.9,286046990.7,N
1498207195.7,286046990.9,N
1498207215.5,286046990.4,N
1498207235.4,286046992.7,N
1498207255.2,286046991.0,N
1498207275.0,286046988.8,N
1498207275.9,286046988.8,N
1498207295.7,286046988.5,N
1498207315.6,286046988.8,N
1498207335.4,286046986.9,N
1498207355.2,286046989.9,N
1498207375.1,286046988.1,N
1498207376.0,286046988.1,N
1498207395.8,286046988.3,N
1498207415.6,286046987.1,N
1498207435.5,286046986.6,N
1498207455.3,286046987.6,N
1498207475.1,286046986.9,N
1498207495.9,286046987.5,N
1498207515.7,286046987.4,N
1498207535.5,286046988.4,N
1498207555.4,286046984.0,N
1498207575.2,286046982.2,Y
1498207595.0,286046999.4,N
1498207595.9,286046999.4,N
1498207615.8,286046997.2,N
1498207635.6,286046997.4,N
1498207655.4,286046993.4,N
1498207675.3,286046993.6,N
1498207695.1,286046994.1,N
1498207696.0,286046994.1,N
1498207715.8,286046994.6,N
1498207735.7,286046993.8,N
1498207755.5,286046991.7,N
1498207775.3,286046992.5,N
1498207795.1,286046990.2,N
1498207815.9,286046992.7,N
1498207835.7,286046992.4,N
1498207855.5,286046990.9,N
1498207875.4,286046989.0,N
1498207895.2,286046989.8,N
1498207915.0,286046989.5,N
1498207915.9,286046989.5,N
1498207935.8,286046989.4,N
1498207955.6,286046987.5,N
1498207975.4,286046989.6,N
1498207995.3,286046987.8,N
1498208015.1,286046987.1,N
1498208016.0,286046987.1,N
1498208035.8,286046983.7,Y
1498208055.7,286047001.0,N
1498208075.5,286047000.5,N
1498208095.3,286047001.8,N
1498208115.2,286046999.8,N
1498208135.9,286047001.6,N
1498208155.7,286046999.7,N
1498208175.5,286047000.0,N
1498208195.4,286047000.5,N
1498208215.2,286046998.4,N
1498208235.0,286046997.5,N
1498208235.9,286046997.5,N
1498208255.8,286046997.9,N
1498208275.6,286046995.1,N
1498208295.4,286046995.4,N
1498208315.3,286046996.1,N
1498208335.1,286046993.8,N
1498208336.0,286046993.8,N
1498208355.8,286046994.5,N
1498208375.7,286046993.9,N
1498208395.5,286046993.9,N
